Date String (YYYY-MM-DD hh:mm:ss) UTC,Instrument flags,Ambient pressure (hPa),Sample flow (lpm),Bypass flow (lpm),Sample temperature (°C),Ambient temperature (°C),ASC tube jacket temperature (°C),LED temperature (°C),Box temperature (°C),Sample RH (%),Span deviation,Mass concentration (μg/m³),Mass concentration (μg/m³),Mass concentration (μg/m³)
DateTimeUTC,F1_M11,P_M11,Q1_M11,Q2_M11,T1_M11,T2_M11,T3_M11,T4_M11,T5_M11,U1_M11,ZSPAN_M11,X0_M11,X2_M11,X1_M11
2022-11-05 00:00:00,,0818.7,5.00,0.00,25.9,24.4,00.0,34.7,27.7,08.3,0000.0,0006.46,0003.64,0003.45
2022-11-05 00:01:00,,0818.7,5.01,0.00,25.9,24.4,00.0,34.7,27.8,08.3,0000.0,0007.00,0003.59,0003.40
2022-11-05 00:02:00,,0818.7,5.00,0.00,25.9,24.4,00.0,34.7,27.7,08.0,0000.0,0006.47,0003.52,0003.33
2022-11-05 00:03:00,,0818.7,5.00,0.00,25.9,24.4,00.0,34.7,27.7,07.8,0000.0,0006.23,0003.38,0003.20
2022-11-05 00:04:00,,0818.7,5.00,0.00,25.9,24.3,00.0,34.7,27.7,07.8,0000.0,0005.65,0003.10,0002.86
2022-11-05 00:05:00,,0818.7,5.01,0.00,25.9,24.3,00.0,34.7,27.7,07.7,0000.0,0004.97,0002.62,0002.38
2022-11-05 00:06:00,,0818.7,5.00,0.00,25.9,24.3,00.0,34.7,27.7,07.7,0000.0,0004.23,0002.03,0001.85
2022-11-05 00:07:00,,0818.7,5.00,0.00,25.8,24.3,00.0,34.7,27.7,07.9,0000.0,0003.46,0001.61,0001.45
2022-11-05 00:08:00,,0818.7,5.00,0.00,25.8,24.3,00.0,34.6,27.7,07.9,0000.0,0002.98,0001.40,0001.25
2022-11-05 00:09:00,,0818.7,4.98,0.00,25.8,24.3,00.0,34.6,27.7,07.9,0000.0,0002.82,0001.28,0001.14
2022-11-05 00:10:00,,0818.7,5.01,0.00,25.8,24.3,00.0,34.6,27.7,08.3,0000.0,0003.35,0001.27,0001.11
2022-11-05 00:11:00,,0818.7,5.01,0.00,25.8,24.3,00.0,34.6,27.7,08.5,0000.0,0003.73,0001.33,0001.15
2022-11-05 00:12:00,,0818.7,5.01,0.00,25.8,24.3,00.0,34.6,27.7,08.8,0000.0,0003.87,0001.42,0001.24
2022-11-05 00:13:00,,0818.8,4.98,0.00,25.8,24.2,00.0,34.6,27.6,09.1,0000.0,0004.20,0001.67,0001.45
2022-11-05 00:14:00,,0818.7,5.01,0.00,25.8,24.3,00.0,34.6,27.7,09.5,0000.0,0004.73,0001.96,0001.69
2022-11-05 00:15:00,,0818.7,5.01,0.00,25.8,24.2,00.0,34.6,27.6,10.0,0000.0,0005.23,0002.38,0002.08
2022-11-05 00:16:00,,0818.7,5.00,0.00,25.8,24.2,00.0,34.6,27.7,10.4,0000.0,0005.70,0002.93,0002.59
2022-11-05 00:17:00,,0818.8,4.99,0.00,25.8,24.2,00.0,34.6,27.6,10.5,0000.0,0006.01,0003.28,0003.04
2022-11-05 00:18:00,,0818.8,5.01,0.00,25.8,24.2,00.0,34.6,27.6,10.7,0000.0,0006.79,0003.65,0003.42
2022-11-05 00:19:00,,0818.7,5.00,0.00,25.8,24.2,00.0,34.6,27.6,10.4,0000.0,0007.32,0003.92,0003.65
2022-11-05 00:20:00,,0818.7,5.00,0.00,25.8,24.2,00.0,34.6,27.6,10.4,0000.0,0007.57,0004.14,0003.84
2022-11-05 00:21:00,,0818.7,5.00,0.00,25.8,24.2,00.0,34.6,27.6,10.9,0000.0,0007.97,0004.45,0004.14
2022-11-05 00:22:00,,0818.7,5.00,0.00,25.8,24.2,00.0,34.6,27.6,10.9,0000.0,0009.41,0004.80,0004.46
2022-11-05 00:23:00,,0818.8,5.00,0.00,25.8,24.2,00.0,34.6,27.6,11.0,0000.0,0009.50,0005.09,0004.72
2022-11-05 00:24:00,,0818.7,5.00,0.00,25.8,24.2,00.0,34.6,27.6,11.0,-000.1,0009.72,0005.38,0004.99
2022-11-05 00:25:00,,0818.7,4.99,0.00,25.7,24.2,00.0,34.6,27.6,11.0,0000.1,0009.81,0005.57,0005.17
2022-11-05 00:26:00,,0818.7,5.00,0.00,25.8,24.2,00.0,34.6,27.6,11.0,-000.0,0009.92,0005.73,0005.33
2022-11-05 00:27:00,,0818.6,5.00,0.00,25.7,24.2,00.0,34.6,27.6,11.0,-000.5,0010.10,0005.83,0005.42
2022-11-05 00:28:00,,0818.7,5.00,0.00,25.8,24.2,00.0,34.6,27.6,11.0,-000.7,0010.42,0005.94,0005.53
2022-11-05 00:29:00,,0818.6,5.00,0.00,25.8,24.2,00.0,34.6,27.6,11.1,0000.0,0010.70,0006.02,0005.59
2022-11-05 00:30:00,,0818.7,5.00,0.00,25.8,24.2,00.0,34.5,27.6,11.2,0000.3,0010.66,0006.02,0005.62
2022-11-05 00:31:00,,0818.7,5.00,0.00,25.8,24.2,00.0,34.5,27.6,11.2,0000.4,0010.82,0006.15,0005.73
2022-11-05 00:32:00,,0818.7,5.00,0.00,25.7,24.2,00.0,34.5,27.6,11.2,0000.2,0011.06,0006.27,0005.85
2022-11-05 00:33:00,,0818.8,5.01,0.00,25.8,24.2,00.0,34.5,27.7,11.2,-000.0,0010.19,0006.27,0005.86
2022-11-05 00:34:00,,0818.7,5.01,0.00,25.8,24.2,00.0,34.5,27.7,11.2,-000.2,0009.71,0006.30,0005.88
2022-11-05 00:35:00,,0818.7,5.00,0.00,25.8,24.2,00.0,34.5,27.7,11.3,-000.7,0009.86,0006.32,0005.88
2022-11-05 00:36:00,,0818.7,4.99,0.00,25.8,24.2,00.0,34.5,27.7,11.4,-001.6,0009.96,0006.34,0005.89
2022-11-05 00:37:00,,0818.7,5.01,0.00,25.8,24.2,00.0,34.5,27.7,11.4,-001.6,0010.12,0006.41,0005.95
2022-11-05 00:38:00,,0818.8,5.01,0.00,25.8,24.2,00.0,34.5,27.7,11.5,-001.8,0010.07,0006.43,0005.99
2022-11-05 00:39:00,,0818.7,5.00,0.00,25.8,24.2,00.0,34.5,27.7,11.4,-001.9,0010.03,0006.46,0006.02
2022-11-05 00:40:00,,0818.7,4.99,0.00,25.8,24.2,00.0,34.5,27.7,11.3,-002.3,0009.99,0006.50,0006.06
2022-11-05 00:41:00,,0818.7,5.01,0.00,25.8,24.3,00.0,34.5,27.7,11.2,-002.7,0010.16,0006.57,0006.11
2022-11-05 00:42:00,,0818.7,4.99,0.00,25.8,24.3,00.0,34.5,27.7,11.3,-002.6,0010.24,0006.61,0006.16
2022-11-05 00:43:00,,0818.7,4.99,0.00,25.8,24.2,00.0,34.5,27.7,11.3,-002.4,0010.19,0006.64,0006.20
2022-11-05 00:44:00,,0818.7,5.02,0.00,25.8,24.3,00.0,34.5,27.7,11.3,-002.2,0010.19,0006.69,0006.24
2022-11-05 00:45:00,,0818.8,4.98,0.00,25.8,24.3,00.0,34.5,27.7,11.2,-002.1,0010.19,0006.71,0006.27
2022-11-05 00:46:00,,0818.8,5.00,0.00,25.8,24.2,00.0,34.5,27.7,11.2,-001.7,0009.97,0006.72,0006.29
2022-11-05 00:47:00,,0818.8,5.00,0.00,25.8,24.2,00.0,34.5,27.7,11.3,-000.8,0009.90,0006.75,0006.32
2022-11-05 00:48:00,,0818.8,5.00,0.00,25.8,24.2,00.0,34.5,27.7,11.4,-001.0,0009.78,0006.76,0006.33
2022-11-05 00:49:00,,0818.9,5.01,0.00,25.8,24.2,00.0,34.5,27.6,11.4,-000.7,0009.81,0006.79,0006.35
2022-11-05 00:50:00,,0818.9,4.99,0.00,25.8,24.2,00.0,34.5,27.6,11.4,-000.6,0009.81,0006.81,0006.35
2022-11-05 00:51:00,,0818.9,5.00,0.00,25.8,24.2,00.0,34.5,27.6,11.5,0000.2,0010.04,0006.93,0006.37
2022-11-05 00:52:00,,0818.8,4.99,0.00,25.7,24.2,00.0,34.5,27.6,11.5,0000.6,0010.00,0006.98,0006.37
2022-11-05 00:53:00,,0818.8,4.99,0.00,25.8,24.2,00.0,34.5,27.6,11.4,0000.9,0010.07,0006.98,0006.37
2022-11-05 00:54:00,,0818.8,5.01,0.00,25.7,24.2,00.0,34.5,27.6,11.4,0000.6,0010.53,0006.99,0006.36
2022-11-05 00:55:00,,0818.8,5.01,0.00,25.7,24.2,00.0,34.5,27.6,11.5,0000.7,0010.76,0007.02,0006.36
2022-11-05 00:56:00,,0818.8,5.00,0.00,25.7,24.1,00.0,34.5,27.6,11.5,0000.6,0010.90,0007.07,0006.37
2022-11-05 00:57:00,,0818.8,5.01,0.00,25.7,24.1,00.0,34.5,27.6,11.6,0000.0,0011.02,0007.13,0006.39
2022-11-05 00:58:00,,0818.8,5.00,0.00,25.7,24.1,00.0,34.5,27.6,11.5,-000.4,0011.33,0007.15,0006.38
2022-11-05 00:59:00,,0818.8,4.98,0.00,25.7,24.1,00.0,34.5,27.6,11.5,-000.4,0011.62,0007.18,0006.37
